Location: Unspecified
(48.2082°N, 0.0000°E)
Time: 15:59:14
(UTC+00:00)

Tiros 1 despin weight - Pass Details

Date: 21 June 2019
Orbit: 594 x 642 km, 48.2° (Epoch: 21 August)

Event Time Altitude Azimuth Distance (km) Brightness Sun altitude
Rises 04:30:53 0° 284° (WNW) 2,832 ? 3.5°
Reaches altitude 10° 04:33:13 10° 278° (W) 1,928 ? 3.8°
Maximum altitude 04:37:27 48° 205° (SSW) 782 ? 4.4°
Drops below altitude 10° 04:41:43 10° 131° (SE) 1,932 ? 5.0°
Sets 04:44:04 0° 125° (SE) 2,837 ? 5.4°
